28P/Neujmin 1 (2021)

Japanese version
Home page
Updated on May 20, 2019

---------------------------------------------------------------------

* Profile

* Orbital Elements

Epoch 2021 Mar. 7.0 TT = JDT 2459280.5
T 2021 Mar. 11.88486 TT                                 MPCW
q   1.5782633            (2000.0)            P               Q
n   0.05344607     Peri.  347.41111     +0.89842018     +0.43523488
a   6.9800555      Node   346.33230     -0.37842497     +0.69984980
e   0.7738896      Incl.   14.31175     -0.22279077     +0.56637518
P  18.44
From 260 observations 1931 Aug. 20-2019 May 8, mean residual 0".6.

* Finding Charts

* Magnitudes Graph

        H = 12.2  G = 0.15

---------------------------------------------------------------------

The orbital elements are published on M.P.E.C. 2019-J142.
The charts are made with StellaNavigator Ver.10 (AstroArts).
The magnitudes graphs are made with Comet for Windows.

---------------------------------------------------------------------

Copyright(C) Seiichi Yoshida (comet@aerith.net). All rights reserved.